Weather History for PAMR - April, 2012

Change the Weather History Date:

Monday, April 23, 2012

  Actual Average Record
Temperature  
Mean Temperature 40 °F -  
Max Temperature 51 °F 48 °F 57 °F (2007)
Min Temperature 30 °F 31 °F 21 °F (2002)
Degree Days  
Heating Degree Days 25    
Moisture  
Dew Point 25 °F    
Average Humidity 54    
Maximum Humidity 75    
Minimum Humidity 36    
Precipitation  
Precipitation 0.00 in - - ()
Sea Level Pressure  
Sea Level Pressure 29.89 in    
Wind  
Wind Speed 2 mph (WNW)    
Max Wind Speed 9 mph    
Max Gust Speed -    
Visibility 10 miles    
Events      
Averages and records for this station are not official NWS values.
T = Trace of Precipitation, MM = Missing Value Source: NWS Daily Summary

Daily Weather History Graph

Daily Weather History Graph

Search for Another Location

Airport or City:

Trip Planner

Search our weather history database for the weather conditions in past years. The results will help you decide how hot, cold, wet, or windy it might be!

Date:

Astronomy

Apr. 23, 2012 Rise Set
Actual Time 6:12 AM AKDT 9:44 PM AKDT
Civil Twilight 5:19 AM AKDT 10:37 PM AKDT
Nautical Twilight 4:02 AM AKDT 11:56 PM AKDT
Astronomical Twilight 2:30 AM AKDT 1:25 AM AKDT
Moon 6:46 AM AKDT 12:09 AM AKDT
Length of Visible Light 17h 17m
Length of Day
15h 32m
Waxing Crescent, 6% of the Moon is Illuminated
Apr 23
Waxing Crescent
Apr 29
First Quarter
May 5
Full
May 12
Last Quarter
May 20
New

Hourly Weather History & Observations

Time (AKDT) Temp. Windchill Dew Point Humidity Pressure Visibility Wind Dir Wind Speed Gust Speed Precip Events Conditions
1:53 AM 37.0 °F - 25.0 °F 62% 29.98 in 10.0 mi Calm Calm - N/A   Partly Cloudy
2:53 AM 33.1 °F - 23.0 °F 66% 29.97 in 10.0 mi Calm Calm - N/A   Clear
4:53 AM 30.0 °F - 21.9 °F 72% 29.96 in 10.0 mi Calm Calm - N/A   Clear
5:53 AM 30.0 °F - 21.9 °F 72% 29.94 in 10.0 mi Calm Calm - N/A   Clear
6:53 AM 30.0 °F - 23.0 °F 75% 29.94 in 10.0 mi Calm Calm - N/A   Clear
7:53 AM 34.0 °F - 27.0 °F 75% 29.94 in 10.0 mi Calm Calm - N/A   Clear
8:53 AM 37.9 °F - 27.0 °F 65% 29.94 in 10.0 mi Calm Calm - N/A   Clear
9:53 AM 39.9 °F - 26.1 °F 58% 29.93 in 10.0 mi Calm Calm - N/A   Clear
10:53 AM 44.1 °F - 25.0 °F 47% 29.91 in 10.0 mi Calm Calm - N/A   Clear
11:53 AM 46.0 °F - 23.0 °F 40% 29.91 in 10.0 mi Calm Calm - N/A   Clear
12:53 PM 48.0 °F - 25.0 °F 41% 29.90 in 10.0 mi NW 5.8 mph - N/A   Clear
1:53 PM 46.9 °F - 26.1 °F 44% 29.90 in 10.0 mi WNW 9.2 mph - N/A   Clear
2:53 PM 48.0 °F - 27.0 °F 44% 29.88 in 10.0 mi WNW 8.1 mph - N/A   Clear
3:53 PM 48.9 °F - 26.1 °F 41% 29.87 in 10.0 mi West 6.9 mph - N/A   Clear
4:53 PM 50.0 °F - 25.0 °F 38% 29.85 in 10.0 mi West 6.9 mph - N/A   Clear
5:53 PM 50.0 °F - 26.1 °F 39% 29.83 in 10.0 mi NW 5.8 mph - N/A   Clear
6:53 PM 50.0 °F - 24.1 °F 36% 29.82 in 10.0 mi West 5.8 mph - N/A   Clear
7:53 PM 46.9 °F - 25.0 °F 42% 29.81 in 10.0 mi WNW 4.6 mph - N/A   Clear
8:53 PM 44.1 °F 40.1 °F 30.0 °F 58% 29.81 in 10.0 mi NW 6.9 mph - N/A   Clear
9:53 PM 42.1 °F - 28.9 °F 60% 29.81 in 10.0 mi Calm Calm - N/A   Partly Cloudy
10:53 PM 41.0 °F 38.0 °F 25.0 °F 53% 29.81 in 10.0 mi East 4.6 mph - N/A   Partly Cloudy
11:53 PM 39.0 °F - 26.1 °F 60% 29.81 in 10.0 mi Calm Calm - N/A   Clear